Content
SEND FEEDBACK

Daily
Averages
Monthly
Summary
United States of America

ACHANG BAY, GUAM


Home > North America > United States > Guam
Elevation: 30 feet     Latitude: 13 16N     Longitude: 144 45E

WEATHER
 
SELECT A DAY
Number of Records: 351,620;   Date Range: 1/1/95 - 10/20/14
 
SHARE

PRINT THIS DATA

[ ← Previous Day ]
WEATHER ALMANAC - SEPTEMBER 21, 2013
[ Next Day → ]
[ °C ]   °F
Weather ElementAverageHighLow
Temperature76.6 °F78.8 °F (3:18 am) (4:17 am)
Dewpoint75.4 °F77.5 °F (12:58 pm) (7:00 pm)
Humidity95.7 %100 % (12:15 am)89 % (1:34 pm)
Barometer29.25 in29.64 in (9:38 am) (7:00 pm)
Wind Speed17.7 mph29.9 mph (1:10 pm)
Wind Gust36.8 mph (1:10 pm)
Weather ElementAverage
Visibility8.7 mi
Wind DirectionWSW (256.3 °)

Weather ElementTotal
Precipitation1.84 in
Heating Degree Days25.6 (Base 65)
Averaged from 100 records on September 21, 2013
WEATHER CONDITIONS BREAKOUT
WIND DIRECTION BREAKOUT
WEATHER BY HOUR - SEPTEMBER 21, 2013
[ °C ]   °F
Local TimeTemperatureDewpointHumidityBarometerVisibilityWind DirectionWind SpeedGust SpeedPrecipitationEventsConditions
12:15 AM75.2 °F75.2 °F100 %29.55 in8.0 miWSW (240°)5.8 mphRainLight Rain
12:58 AM75.7 °F74.5 °F96 %29.41 in10.0 miWSW (250°)9.2 mph0.04 inRainLight Rain
1:23 AM75.2 °F75.2 °F100 %29.53 in10.0 miWSW (250°)9.2 mphRainRain
1:28 AM75.2 °F75.2 °F100 %29.53 in10.0 miWSW (250°)10.4 mphRainLight Rain
1:43 AM75.2 °F75.2 °F100 %29.52 in10.0 miWSW (250°)13.8 mphRainLight Rain
1:58 AM76.5 °F75.9 °F98 %29.40 in10.0 miWSW (250°)12.7 mph0.05 inRainLight Rain
2:09 AM77.0 °F75.2 °F94 %29.52 in10.0 miWest (260°)16.1 mphScattered Clouds
2:20 AM77.0 °F77.0 °F100 %29.51 in10.0 miWest (260°)17.3 mphLight Drizzle
2:38 AM77.0 °F77.0 °F100 %29.51 in10.0 miWest (260°)13.8 mphPartly Cloudy
2:53 AM77.0 °F77.0 °F100 %29.51 in10.0 miWest (260°)13.8 mphMostly Cloudy
2:58 AM77.5 °F77.0 °F98 %29.39 in10.0 miWest (260°)12.7 mph0.00 inMostly Cloudy
3:08 AM77.0 °F77.0 °F100 %29.51 in10.0 miWSW (250°)15.0 mphOvercast
3:18 AM78.8 °F77.0 °F94 %29.52 in10.0 miWest (260°)18.4 mphMostly Cloudy
3:19 AM78.8 °F77.0 °F94 %29.52 in10.0 miWest (260°)17.3 mphLight Drizzle
3:24 AM78.8 °F77.0 °F94 %29.52 in10.0 miWest (260°)17.3 mphLight Drizzle
3:27 AM78.8 °F77.0 °F94 %29.51 in10.0 miWSW (250°)16.1 mphMostly Cloudy
3:32 AM78.8 °F77.0 °F94 %29.51 in10.0 miWest (260°)16.1 mphMostly Cloudy
3:47 AM78.8 °F77.0 °F94 %29.52 in10.0 miWest (270°)12.7 mphMostly Cloudy
3:52 AM78.8 °F77.0 °F94 %29.53 in10.0 miWest (270°)12.7 mphMostly Cloudy
3:57 AM78.8 °F77.0 °F94 %29.53 in10.0 miWest (270°)15.0 mphMostly Cloudy
3:58 AM78.8 °F77.0 °F94 %29.41 in10.0 miWest (270°)15.0 mph0.01 inMostly Cloudy
4:03 AM78.8 °F77.0 °F94 %29.52 in10.0 miWest (280°)15.0 mphMostly Cloudy
4:09 AM78.8 °F77.0 °F94 %29.53 in10.0 miWest (280°)18.4 mphLight Drizzle
4:17 AM0.0 °F0.0 °FWest (280°)18.4 mph
4:18 AM78.8 °F77.0 °F94 %29.54 in10.0 miWest (280°)16.1 mphRainLight Rain
4:28 AM78.8 °F77.0 °F94 %29.54 in8.0 miWest (280°)15.0 mphRainHeavy Rain
4:58 AM77.2 °F76.6 °F98 %29.43 in6.0 miWest (280°)16.1 mph0.21 inRainHeavy Rain
5:08 AM77.0 °F75.2 °F94 %29.55 in7.0 miWNW (290°)21.9 mph26.5 mphRainHeavy Rain
5:18 AM77.0 °F75.2 °F94 %29.55 in4.0 miWest (280°)13.8 mphRainHeavy Rain
5:23 AM77.0 °F75.2 °F94 %29.55 in4.0 miWest (260°)16.1 mph24.2 mphRainHeavy Rain
5:33 AM77.0 °F75.2 °F94 %29.54 in5.0 miWest (260°)16.1 mph24.2 mphRainHeavy Rain
5:38 AM77.0 °F75.2 °F94 %29.54 in7.0 miWSW (250°)21.9 mph27.6 mphRainRain
5:48 AM77.0 °F75.2 °F94 %29.53 in9.0 miWSW (250°)19.6 mphRainLight Rain
5:53 AM77.0 °F75.2 °F94 %29.54 in8.0 miWSW (250°)18.4 mphRainRain
5:58 AM76.1 °F75.2 °F97 %29.43 in9.0 miWest (260°)19.6 mph0.37 inRainRain
6:03 AM77.0 °F75.2 °F94 %29.55 in10.0 miWest (260°)18.4 mphRainRain
6:08 AM75.2 °F75.2 °F100 %29.55 in10.0 miWest (260°)18.4 mphRainRain
6:28 AM75.2 °F73.4 °F94 %29.56 in10.0 miWest (270°)16.1 mphRainRain
6:48 AM75.2 °F75.2 °F100 %29.56 in6.0 miWSW (250°)13.8 mphRainRain
6:58 AM75.7 °F75.2 °F98 %29.44 in5.0 miWSW (240°)15.0 mph0.19 inRainHeavy Rain
7:03 AM75.2 °F75.2 °F100 %29.57 in5.0 miWSW (240°)17.3 mphRainHeavy Rain
7:18 AM75.2 °F75.2 °F100 %29.57 in4.0 miWSW (250°)15.0 mph24.2 mphRainLight Rain
7:38 AM77.0 °F75.2 °F94 %29.59 in5.0 miWest (260°)17.3 mph24.2 mphRainRain
7:48 AM75.2 °F73.4 °F94 %29.59 in4.0 miWest (260°)17.3 mph32.2 mphRainRain
7:58 AM75.2 °F73.8 °F95 %29.48 in9.0 miWest (260°)15.0 mph24.2 mph0.26 inRainRain
8:08 AM75.2 °F73.4 °F94 %29.60 in8.0 miWSW (250°)20.7 mph26.5 mphRainRain
8:18 AM75.2 °F75.2 °F100 %29.60 in6.0 miWSW (250°)26.5 mph31.1 mphRainRain
8:38 AM75.2 °F75.2 °F100 %29.61 in10.0 miWSW (250°)21.9 mph28.8 mphRainLight Rain
8:48 AM75.2 °F73.4 °F94 %29.61 in7.0 miWest (260°)19.6 mphRainRain
8:58 AM75.9 °F74.8 °F96 %29.49 in6.0 miWSW (250°)19.6 mph0.18 inRainHeavy Rain
9:08 AM77.0 °F75.2 °F94 %29.62 in8.0 miWest (260°)18.4 mph26.5 mphRainLight Rain
9:18 AM77.0 °F75.2 °F94 %29.63 in5.0 miWSW (250°)18.4 mph25.3 mphRainHeavy Rain
9:28 AM77.0 °F75.2 °F94 %29.62 in7.0 miWSW (250°)18.4 mphRainRain
9:33 AM77.0 °F77.0 °F100 %29.63 in5.0 miWSW (250°)17.3 mphRainRain
9:38 AM77.0 °F77.0 °F100 %29.64 in4.0 miWest (270°)20.7 mph25.3 mphRainRain
9:58 AM77.0 °F75.9 °F96 %29.52 in8.0 miWSW (250°)19.6 mph25.3 mph0.23 inRainLight Rain
10:08 AM77.0 °F75.2 °F94 %29.63 in8.0 miWSW (240°)23.0 mphRainLight Rain
10:10 AM77.0 °F75.2 °F94 %29.64 in10.0 miWSW (250°)19.6 mphOvercast
10:25 AM77.0 °F75.2 °F94 %29.63 in10.0 miWSW (250°)18.4 mphOvercast
10:28 AM77.0 °F75.2 °F94 %29.63 in9.0 miWSW (240°)19.6 mphRainLight Rain
10:46 AM77.0 °F77.0 °F100 %29.63 in8.0 miWSW (240°)19.6 mphOvercast
10:56 AM77.0 °F77.0 °F100 %29.63 in8.0 miSW (230°)16.1 mphOvercast
10:57 AM77.0 °F77.0 °F100 %29.63 in7.0 miSW (230°)16.1 mphRainLight Rain
10:58 AM77.2 °F76.3 °F97 %29.51 in7.0 miSW (230°)17.3 mph0.07 inRainLight Rain
11:23 AM77.0 °F77.0 °F100 %29.62 in6.0 miSW (230°)16.1 mph21.9 mphRainLight Rain
11:53 AM77.0 °F77.0 °F100 %29.61 in5.0 miWSW (250°)16.1 mph23.0 mphRainLight Rain
11:58 AM77.4 °F76.5 °F97 %29.49 in6.0 miWest (260°)18.4 mph23.0 mph0.11 inRainLight Rain
12:10 PM77.0 °F77.0 °F100 %29.61 in10.0 miWSW (250°)18.4 mph25.3 mphOvercast
12:20 PM77.0 °F77.0 °F100 %29.60 in10.0 miWest (260°)16.1 mphOvercast
12:25 PM77.0 °F77.0 °F100 %29.60 in10.0 miWest (260°)18.4 mphOvercast
12:35 PM78.8 °F77.0 °F94 %29.59 in10.0 miWest (270°)20.7 mph27.6 mphRainLight Rain
12:51 PM78.8 °F77.0 °F94 %29.59 in10.0 miWest (270°)21.9 mph33.4 mphMostly Cloudy
12:54 PM78.8 °F77.0 °F94 %29.58 in10.0 miWest (270°)24.2 mph31.1 mphRainLight Rain
12:58 PM78.6 °F77.5 °F96 %29.46 in10.0 miWest (270°)21.9 mph31.1 mph0.05 inRainLight Rain
1:10 PM78.8 °F77.0 °F94 %29.57 in10.0 miWest (280°)29.9 mph36.8 mphMostly Cloudy
1:15 PM78.8 °F77.0 °F94 %29.57 in10.0 miWest (280°)25.3 mph36.8 mphScattered Clouds
1:34 PM78.8 °F75.2 °F89 %29.57 in10.0 miWest (280°)28.8 mph36.8 mphRainLight Rain
1:55 PM78.8 °F77.0 °F94 %29.57 in10.0 miWest (280°)26.5 mph34.5 mphClear
1:58 PM78.3 °F76.8 °F95 %29.45 in10.0 miWest (280°)24.2 mph34.5 mph0.02 inClear
1:59 PM78.8 °F77.0 °F94 %29.57 in10.0 miWest (270°)23.0 mph34.5 mphRainLight Rain
2:10 PM78.8 °F77.0 °F94 %29.58 in10.0 miWest (280°)24.2 mph32.2 mphClear
2:21 PM78.8 °F77.0 °F94 %29.58 in10.0 miWest (280°)23.0 mph33.4 mphRainLight Rain
2:30 PM78.8 °F77.0 °F94 %29.58 in10.0 miWest (270°)20.7 mph32.2 mphPartly Cloudy
2:58 PM78.4 °F76.8 °F95 %29.46 in10.0 miWest (270°)20.7 mph27.6 mph0.01 inPartly Cloudy
3:03 PM78.8 °F77.0 °F94 %29.58 in10.0 miWest (270°)18.4 mph27.6 mphRainLight Rain
3:23 PM78.8 °F77.0 °F94 %29.58 in9.0 miWest (260°)21.9 mph28.8 mphRainLight Rain
3:28 PM78.8 °F77.0 °F94 %29.58 in9.0 miWSW (250°)21.9 mph28.8 mphRainLight Rain
3:54 PM78.8 °F77.0 °F94 %29.59 in9.0 miSW (220°)17.3 mph19.6 mphMostly Cloudy
3:58 PM78.1 °F76.6 °F95 %29.47 in10.0 miSW (230°)19.6 mph25.3 mph0.04 inMostly Cloudy
4:03 PM78.8 °F77.0 °F94 %29.59 in10.0 miWSW (240°)15.0 mph25.3 mphScattered Clouds
4:58 PM78.4 °F77.0 °F95 %29.48 in10.0 miWSW (240°)15.0 mphClear
5:58 PM78.4 °F76.3 °F93 %29.48 in10.0 miWSW (240°)17.3 mphClear
6:58 PM78.3 °F76.1 °F93 %29.51 in10.0 miWSW (240°)15.0 mphScattered Clouds
7:08 PM78.8 °F75.2 °F89 %29.64 in10.0 miWSW (240°)16.1 mphRainLight Rain
7:18 PM78.8 °F75.2 °F89 %29.64 in10.0 miWSW (240°)15.0 mphClear
7:58 PM78.3 °F76.1 °F93 %29.52 in10.0 miSW (230°)15.0 mph0.00 inMostly Cloudy
8:58 PM78.6 °F76.3 °F92 %29.52 in10.0 miWSW (240°)15.0 mphScattered Clouds
9:58 PM78.3 °F76.8 °F95 %29.54 in10.0 miWSW (240°)11.5 mphPartly Cloudy
10:58 PM78.4 °F76.6 °F94 %29.53 in10.0 miSW (220°)9.2 mphClear
11:58 PM78.3 °F76.8 °F95 %29.52 in10.0 miSW (230°)13.8 mphMostly Cloudy
Hourly data recorded from PGUA, located miles away from Achang Bay, Guam







STORIES FROM OUR PARTNERS